www.pogodaiklimat.ru
ПОГОДА в Вестдорпе
Время
(UTC), дата
22 18.01
23 18.01
00 19.01
01 19.01
02 19.01
03 19.01
04 19.01
05 19.01
06 19.01
07 19.01
08 19.01
09 19.01
10 19.01
11 19.01
12 19.01
13 19.01
14 19.01
15 19.01
16 19.01
17 19.01
18 19.01
19 19.01
20 19.01
21 19.01
22 19.01
23 19.01
00 20.01
01 20.01
02 20.01
03 20.01
04 20.01
05 20.01
06 20.01
07 20.01
08 20.01
09 20.01
10 20.01
11 20.01
12 20.01
13 20.01
14 20.01
15 20.01
16 20.01
17 20.01
18 20.01
19 20.01
20 20.01
21 20.01
22 20.01
23 20.01
00 21.01
01 21.01
02 21.01
03 21.01
04 21.01
05 21.01
06 21.01
07 21.01
08 21.01
09 21.01
10 21.01
11 21.01
12 21.01
13 21.01
14 21.01
15 21.01
16 21.01
17 21.01
18 21.01
19 21.01
20 21.01
21 21.01
22 21.01
23 21.01
00 22.01
01 22.01
02 22.01
03 22.01
04 22.01
05 22.01
06 22.01
07 22.01
08 22.01
09 22.01
10 22.01
11 22.01
12 22.01
13 22.01
14 22.01
15 22.01
16 22.01
17 22.01
18 22.01
19 22.01
20 22.01
21 22.01
22 22.01
23 22.01
00 23.01
01 23.01
02 23.01
03 23.01
04 23.01
05 23.01
06 23.01
07 23.01
08 23.01
09 23.01
10 23.01
11 23.01
12 23.01
13 23.01
14 23.01
15 23.01
16 23.01
17 23.01
18 23.01
19 23.01
20 23.01
21 23.01
22 23.01
23 23.01
00 24.01
01 24.01
02 24.01
03 24.01
04 24.01
05 24.01
06 24.01
07 24.01
08 24.01
09 24.01
10 24.01
11 24.01
12 24.01
13 24.01
14 24.01
15 24.01
16 24.01
17 24.01
18 24.01
19 24.01
20 24.01
21 24.01
22 24.01
23 24.01
00 25.01
01 25.01
02 25.01
03 25.01
04 25.01
05 25.01
06 25.01
07 25.01
08 25.01
09 25.01
10 25.01
11 25.01
12 25.01
13 25.01
14 25.01
15 25.01
16 25.01
17 25.01
18 25.01
19 25.01
20 25.01
21 25.01
22 25.01
Ветер
(напр.,м/с)
Видим. Явления Облачность Т
(С)
Тd
(С)
f
(%)
Тe
(С)
Тes
(С)
Комфортность P
(гПа)
Po
(гПа)
Тmin
(С)
Tmax
(С)
R
(мм)
R24
(мм)
S
(см)
ЮЗ 8-12
{12}
35 км слаб. морось {дождь} н/о +6.2 +3.2 81 +1 +1 1018.0 1017.7
ЮЗ 6-10
{11}
>70 км слаб. морось {дождь} н/о +5.9 +2.9 81 +1 +1 1017.1 1016.9
Ю 7-10
{13}
35 км слаб. морось с дождем н/о +5.4 +2.6 82 0 0 1016.2 1015.9 0.2
Ю 8-11
{12}
35 км слаб. дождь н/о +5.3 +2.6 83 -0 -0 1014.9 1014.6
Ю 8-11
{12}
13 км слаб. дождь н/о +4.7 +3.4 91 -1 -1 1013.5 1013.3 0.3
Ю 9-12
{14}
15 км слаб. дождь н/о +5.2 +4.1 93 -1 -1 1011.8 1011.5 0.3
Ю 10 35 км слаб. дождь {морось} н/о +5.6 +4.3 91 -1 -1 1010.1 1009.8
ЮЗ 10 10 км дождь {морось} н/о +6.0 +4.8 92 -0 -0 1009.2 1008.8 1
ЮЗ 11-15
{16}
13 км дождь {морось} н/о +6.3 +5.1 92 0 0 1007.8 1007.4 +4.7 2 4.0
ЮЗ 13 14 км слаб. дождь н/о +7.0 +5.5 90 +1 +1 1006.8 1006.5 1
ЮЗ 12 16 км морось с дождем н/о +7.1 +5.8 91 +1 +1 1006.5 1006.1 0.6
ЮЗ 11-16
{19}
12 км слаб. дождь н/о +7.6 +6.6 93 +2 +2 1006.6 1006.1 0.8
ЮЗ 10 18 км слаб. дождь н/о +8.5 +7.9 96 +3 +3 1007.0 1006.6 0.5
ЮЗ 10 14 км слаб. дождь н/о +9.6 +8.9 95 +5 +5 1007.2 1006.8 0.4
ЮЗ 11-16
{19}
18 км морось {дождь} н/о +10.0 +9.1 94 +5 +5 1007.0 1006.6 0.3
ЮЗ 11 >70 км в посл. час дождь н/о +10.4 +8.8 90 +6 +6 1006.8 1006.4
ЮЗ 11 >70 км н/о +10.1 +8.0 87 +5 +5 1006.6 1006.3
ЮЗ 11-16
{17}
55 км н/о +10.0 +7.3 83 +5 +5 1006.7 1006.3
ЮЗ 10 45 км н/о +9.3 +7.0 86 +4 +4 1006.6 1006.3
ЮЗ 9 55 км н/о +9.2 +6.1 81 +5 +5 1006.7 1006.3
ЮЗ 8-11
{17}
25 км н/о +8.2 +6.3 88 +3 +3 1006.5 1006.2 +10.5 4
Ю 9 29 км н/о +7.6 +5.5 87 +2 +2 1005.9 1005.6
Ю 8 26 км н/о +7.4 +5.4 87 +2 +2 1005.3 1005.0
Ю 9-12
{15}
27 км н/о +7.4 +5.1 85 +2 +2 1004.4 1004.2
Ю 9-13
{16}
26 км н/о +7.3 +4.8 84 +2 +2 1003.7 1003.4
Ю 8-13
{13}
35 км н/о +7.2 +4.3 82 +2 +2 1003.1 1002.8
Ю 9-13
{16}
35 км н/о +7.3 +4.4 82 +2 +2 1002.2 1001.9
Ю 9-12
{15}
23 км н/о +7.5 +4.9 84 +2 +2 1001.6 1001.3
Ю 8-12
{14}
23 км в посл. час морось н/о +7.5 +5.3 86 +3 +3 1001.1 1000.7
Ю 9-14
{15}
29 км н/о +7.8 +4.8 81 +3 +3 1000.4 1000.0
Ю 9 40 км н/о +8.0 +4.8 80 +3 +3 999.9 999.5
Ю 10 45 км н/о +8.2 +5.1 81 +3 +3 999.4 999.0
Ю 9-13
{16}
50 км в посл. час дождь {ливн. дождь} н/о +7.8 +5.6 86 +3 +3 998.7 998.3 +7.0 3.7
Ю 8 50 км в посл. час морось н/о +8.0 +5.4 84 +3 +3 998.2 997.8
Ю 10 60 км н/о +8.0 +4.8 80 +3 +3 998.1 997.7
Ю 9-12
{15}
>70 км н/о +8.3 +3.9 74 +4 +4 997.9 997.6
Ю 9 >70 км в посл. час морось н/о +8.4 +3.3 70 +4 +4 997.6 997.3
Ю 9 >70 км н/о +8.8 +3.8 71 +4 +4 996.8 996.5
Ю 7-11
{15}
50 км в посл. час дождь {ливн. дождь} н/о +9.0 +3.8 70 +5 +5 995.5 995.3
Ю 9 >70 км в посл. час морось н/о +9.3 +3.4 67 +5 +5 994.8 994.5
Ю 8 н/о н/о +9.7 +3.0 63 +6 +6 993.9 993.5
Ю 8-12
{15}
55 км н/о +9.8 +2.6 61 +6 +6 993.2 992.9
Ю 7 50 км н/о +9.8 +2.4 60 +6 +6 992.7 992.3
Ю 8-12
{12}
50 км н/о +10.1 +2.6 60 +6 +6 992.2 992.0
Ю 11-16
{16}
55 км слаб. морось н/о +10.7 +3.1 59 +7 +7 991.9 991.7 +10.9
Ю 9 45 км слаб. морось с дождем н/о +10.2 +3.7 64 +6 +6 991.3 991.0
Ю 10 >70 км в посл. час дождь {ливн. дождь, морось} н/о +10.5 +4.1 65 +6 +6 990.0 989.7
Ю 8 50 км {ливн. дождь, морось} н/о +10.8 +4.3 64 +7 +7 988.9 988.5
Ю 9-14
{15}
50 км {ливн. дождь, морось} н/о +10.8 +4.9 67 +7 +7 987.7 987.3
Ю 9-16
{17}
55 км {ливн. дождь, морось} н/о +11.1 +5.3 67 +7 +7 985.7 985.5
Ю 13-19
{19}
3800 м град {ливн. дождь, морось} н/о +10.7 +6.4 75 +6 +6 984.1 983.8 0.8
Ю 14-25
{25}
24 км морось с дождем {ливн. дождь} н/о +11.4 +6.3 71 +7 +7 982.4 982.2 0.3
Ю 13-19
{22}
40 км в посл. час дождь {ливн. дождь} н/о +10.9 +7.2 78 +6 +6 981.7 981.4 0.4
ЮЗ 12-18
{25}
3400 м ливневой дождь н/о +7.2 +5.9 91 +1 +1 984.0 983.7 2
ЮЗ 12 35 км в посл. час дождь {ливн. дождь, морось} н/о +7.8 +3.9 76 +2 +2 985.5 985.0 0.1
ЮЗ 13 50 км слаб. морось {дождь} н/о +6.8 +1.7 70 +1 +1 987.9 987.3
ЮЗ 8 45 км слаб. морось {дождь} н/о +6.0 +1.7 74 +1 +1 989.1 988.7 +5.7
ЮЗ 8 35 км в посл. час дождь н/о +5.7 +1.6 75 0 0 990.1 989.7
Ю 6 >70 км н/о +5.9 +2.6 79 +1 +1 990.9 990.5
ЮЗ 9 29 км н/о +6.6 +3.3 79 +1 +1 991.2 990.8
ЮЗ 10 35 км н/о +6.7 +3.5 80 +1 +1 991.7 991.2
ЮЗ 11 27 км н/о +7.4 +3.9 78 +2 +2 991.7 991.2
ЮЗ 12 30 км н/о +7.6 +3.9 77 +2 +2 991.6 991.1
ЮЗ 9 35 км н/о +7.9 +4.1 77 +3 +3 991.2 990.9
ЮЗ 8 45 км н/о +7.9 +4.2 77 +3 +3 991.1 990.7
Ю 8 35 км н/о +7.9 +4.0 76 +3 +3 990.5 990.2
Ю 9 40 км н/о +7.9 +4.1 77 +3 +3 989.7 989.4
Ю 7 14 км слаб. ливневой дождь {морось} н/о +6.5 +4.3 86 +2 +2 989.4 989.1 0.4
ЮВ 2 7000 м дождь {ливн. дождь, морось} н/о +5.6 +4.8 95 +3 +3 987.4 987.2 +8.2 2
В 3 6000 м дождь н/о +5.4 +5.0 97 +2 +2 984.8 984.4 3
ЮВ 4 8000 м дождь н/о +6.3 +6.2 99 +2 +2 982.9 982.3 2
ЮЗ 5 30 км слаб. дождь н/о +7.8 +6.6 92 +4 +4 982.3 981.8 0.4
СЗ 5-7
{8}
14 км слаб. дождь н/о +4.9 +4.6 98 -0 -0 983.7 983.1 2
СЗ 7-10
{10}
12 км слаб. дождь н/о +4.3 +3.6 95 -2 -2 985.3 984.7 0.9
З 3-4
{11}
45 км слаб. дождь н/о +4.2 +3.0 92 0 0 986.1 985.7 0.3
ЮЗ 4-5
{5}
>70 км слаб. морось н/о +4.3 +2.9 91 -0 -0 987.3 986.9
ЮЗ 6-8
{8}
50 км слаб. морось н/о +4.2 +3.1 93 -1 -1 988.1 987.6
ЮЗ 5-7
{9}
45 км слаб. морось {дождь} н/о +3.8 +2.8 93 -1 -1 988.6 988.2
ЮЗ 6 30 км в посл. час морось {дождь} н/о +3.8 +2.7 93 -2 -2 989.4 988.9
ЮЗ 5 30 км {дождь, морось} н/о +3.7 +2.6 93 -2 -2 989.7 989.3
ЮЗ 5 35 км {дождь, морось} н/о +3.4 +2.4 93 -2 -2 990.1 989.7 +3.4
ЮЗ 4 35 км н/о +3.1 +2.0 92 -2 -2 990.8 990.4
ЮЗ 4 30 км н/о +3.1 +2.0 92 -2 -2 991.6 991.2
ЮЗ 4 27 км н/о +3.4 +2.3 92 -1 -1 992.6 992.1
ЮЗ 4 30 км слаб. морось н/о +4.4 +3.0 91 0 0 993.4 993.0
ЮЗ 4 29 км слаб. морось н/о +4.9 +3.4 90 +1 +1 994.1 993.6
ЮЗ 4 35 км в посл. час морось н/о +6.4 +4.2 86 +3 +3 994.2 993.8
ЮЗ 6 30 км н/о +6.7 +4.0 83 +2 +2 994.5 994.1
ЮЗ 5 30 км н/о +6.8 +3.5 79 +3 +3 994.9 994.4
ЮЗ 4 45 км н/о +6.5 +2.9 78 +3 +3 995.2 994.9
ЮЗ 3 50 км н/о +5.5 +2.7 82 +2 +2 995.1 994.7
ЮЗ 2 35 км н/о +4.6 +2.3 85 +2 +2 995.5 995.1
ЮЗ 3 45 км слаб. морось н/о +4.7 +1.5 80 +1 +1 996.0 995.6 +6.9
Ю 2 65 км слаб. морось н/о +3.9 +1.5 84 +1 +1 996.2 995.8
Ю 2 18 км в посл. час морось н/о +3.4 +1.7 89 0 0 996.1 995.7
Ю 3 25 км {морось} н/о +3.4 +1.7 89 -1 -1 996.1 995.7
Ю 3-6
{6}
27 км {морось} н/о +3.6 +1.9 89 -0 -0 996.2 995.8
Ю 3-5
{6}
20 км н/о +3.1 +1.8 91 -1 -1 995.9 995.5
Ю 4-6
{6}
20 км слаб. морось н/о +4.0 +2.3 89 -1 -1 995.5 995.1
Ю 5-9
{9}
21 км слаб. морось н/о +4.6 +2.6 87 -0 -0 995.0 994.6
ЮЗ 6-9
{12}
35 км слаб. морось н/о +4.8 +2.5 85 -0 -0 995.0 994.7
Ю 5-8
{12}
60 км слаб. морось н/о +4.0 +2.1 87 -1 -1 994.5 994.2
Ю 5 40 км слаб. морось {дождь} н/о +3.5 +1.9 89 -2 -2 994.5 994.2
ЮЗ 6 35 км в посл. час морось {ливн. дождь, дождь} н/о +4.0 +2.0 87 -2 -2 994.4 994.0
ЮЗ 6 40 км {ливн. дождь, морось} н/о +3.6 +1.8 88 -2 -2 994.7 994.3 +3.1
ЮЗ 6 29 км н/о +3.7 +1.9 88 -2 -2 995.1 994.7
Ю 4 28 км н/о +3.1 +1.8 91 -2 -2 995.4 994.9
Ю 3 45 км н/о +2.9 +1.4 90 -1 -1 995.1 994.7
Ю 3 28 км н/о +2.9 +1.7 92 -1 -1 995.0 994.6
Ю 3 25 км в посл. час морось н/о +3.5 +2.1 91 -1 -1 994.6 994.2
Ю 3 26 км слаб. морось н/о +4.6 +3.0 89 +1 +1 994.3 993.9
Ю 2 23 км слаб. морось н/о +4.9 +3.1 88 +2 +2 993.8 993.4
Ю 2 35 км слаб. морось с дождем н/о +4.6 +3.0 89 +2 +2 993.5 993.1
ЮЗ 1 11 км слаб. дождь {морось} н/о +4.4 +3.1 91 +3 +3 993.4 993.0 0.1
СЗ 3 10 км дождь {морось} н/о +3.4 +2.0 91 -1 -1 993.8 993.4 1
СЗ 2 17 км слаб. дождь {морось} н/о +3.1 +1.7 91 0 0 994.0 993.6 1
СВ 2 12 км слаб. дождь {морось} н/о +3.0 +2.1 94 -0 -0 994.0 993.6 +5.0 1
ЮВ 1 14 км слаб. ливневой дождь {морось} н/о +2.4 +1.8 96 +1 +1 994.3 993.9
ЮВ 2 7000 м в посл. час дождь {ливн. дождь, морось} н/о +1.8 +1.3 96 -2 -2 994.6 994.2
ЮЗ 1 7000 м дымка {ливн. снег} н/о +1.8 +1.4 97 -0 -0 994.6 994.2
СЗ 5-7
{8}
12 км слаб. дождь со снегом н/о +1.5 +0.8 95 -4 -4 995.1 994.7
З 4-6
{6}
19 км в посл. час снег {ливн. снег, дымка} н/о +1.8 +1.0 94 -3 -3 995.4 995.0
З 4-6
{8}
28 км {ливн. снег, дымка} н/о +1.7 +0.9 94 -4 -4 995.8 995.4
СЗ 4-6
{8}
8000 м ливневой снег {гроза, морось} н/о +1.0 +0.6 97 -4 -4 996.3 995.9 0.4
З 4-5
{7}
16 км в посл. час снег {гроза} н/о +1.0 +0.4 96 -4 -4 996.7 996.3
З 4-5
{8}
17 км в посл. час зёрна {гроза} н/о +1.3 +0.1 92 -4 -4 997.4 997.0
З 5 30 км {гроза, снег} н/о +2.0 -0.9 81 -3 -3 998.0 997.6
З 4 29 км {гроза, снег} н/о +1.3 -1.0 85 -4 -4 998.5 998.0
З 3 28 км {гроза, снег} н/о +0.7 -1.1 88 -4 -4 998.9 998.5 +0.7
ЮЗ 2 22 км н/о +0.2 -1.0 92 -4 -4 999.3 998.9
ЮЗ 4 24 км н/о +0.6 -0.9 90 -5 -5 1000.3 999.8
ЮЗ 3 26 км н/о +1.1 -0.5 89 -3 -3 1000.4 1000.0
ЮЗ 3 23 км н/о +1.5 -0.4 87 -3 -3 1000.7 1000.2
Ю 2 13 км в посл. час снег н/о +2.5 +0.4 86 -1 -1 1000.7 1000.2
Ю 4 20 км н/о +2.8 +0.5 85 -2 -2 1000.4 1000.0
Ю 3 21 км в посл. час морось н/о +2.5 +0.1 84 -2 -2 999.8 999.4
Ю 3 28 км н/о +2.8 -0.1 81 -1 -1 998.9 998.6
ЮВ 3 27 км н/о +2.7 0.0 82 -1 -1 998.4 998.1
ЮВ 4 28 км н/о +2.5 -0.4 81 -2 -2 997.9 997.5
ЮВ 4 28 км слаб. дождь со снегом {морось} н/о +2.4 -0.6 81 -2 -2 997.3 997.1
ЮВ 4-5
{8}
10 км слаб. ливневой снег {морось} н/о +1.2 +0.2 93 -4 -4 996.5 996.2 +3.0 0.3
ЮВ 4 3800 м ливневой снег н/о +1.1 +0.2 94 -4 -4 995.9 995.6 0.4
ЮВ 4 5000 м слаб. дождь со снегом н/о +0.6 +0.2 97 -5 -5 995.6 995.2 0.8
ЮВ 3 10 км слаб. ливневой снег н/о +0.9 +0.5 97 -4 -4 995.6 995.2 0.4
ЮВ 2-4
{5}
7000 м снежные зёрна {ливн. снег, морось} н/о +1.2 +0.8 97 -2 -2 995.7 995.3 0.1
ЮВ 2-3
{4}
10 км в посл. час морось {ливн. снег} н/о +1.4 +1.1 98 -2 -2 995.9 995.5 0.1
ЮВ 1-2
{7}
10 км в посл. час зёрна {ливн. снег} н/о +1.6 +1.3 98 -0 -0 996.3 995.9
ЮВ 2-2
{2}
9000 м дымка н/о +1.7 +1.3 97 -2 -2 996.7 996.3
В 2-2
{2}
5000 м дымка н/о +1.4 +1.0 97 -2 -2 997.4 996.9
СВ 2-2
{2}
3500 м дымка н/о +1.3 +1.0 98 -2 -2 998.2 997.8
СВ 1 4700 м дымка н/о +1.4 +1.4 100 -1 -1 998.9 998.4
С 5 2500 м дымка н/о +1.4 +1.0 97 -5 -5 1000.1 999.7
С 5 7000 м дымка н/о +1.6 +0.8 94 -4 -4 1001.2 1000.7 +0.5
С 5 12 км н/о +1.5 +0.4 92 -4 -4 1002.5 1002.0
СВ 3 9000 м дымка н/о +1.2 +0.1 92 -3 -3 1003.8 1003.2
С 1 6000 м дымка н/о +1.3 +0.4 94 -1 -1 1005.1 1004.6
СЗ 2 8000 м дымка н/о +2.5 +1.0 90 -1 -1 1006.1 1005.6
З 2 17 км н/о +3.8 +1.4 84 +1 +1 1007.0 1006.5
З 2 24 км н/о +5.4 +2.0 79 +3 +3 1007.5 1007.0
З 2 55 км в посл. час снег н/о +3.6 +1.4 86 +1 +1 1008.0 1007.6 0.7
З 5 45 км в посл. час зёрна н/о +5.6 +0.8 71 +1 +1 1008.3 1007.9 0.1
З 5 45 км {снег, морось} н/о +5.1 +0.1 70 +1 +1 1009.0 1008.5
З 6 35 км {снег, морось} н/о +4.7 +0.8 76 -0 -0 1009.6 1009.2
З 5 40 км {снег, морось} н/о +3.3 +0.7 83 -2 -2 1010.1 1009.7
ЮЗ 6 26 км {снег, морось} н/о +3.2 +1.1 86 -3 -3 1010.6 1010.1 +5.7
ЮЗ 6 25 км слаб. морось н/о +3.4 +1.5 87 -2 -2 1011.1 1010.6
З 4 25 км в посл. час снег {морось} н/о +4.1 +2.1 87 -0 -0 1011.6 1011.2
З 7 35 км слаб. морось н/о +4.8 +1.7 80 -1 -1 1012.1 1011.7
З 7-10
{11}
27 км ливневой дождь {морось} н/о +4.9 +1.7 80 -1 -1 1012.7 1012.2
Местоположение метеостанции Вестдорп (Нидерланды): широта 51.23 долгота 3.87 высота над уровнем моря 2 м.
В архиве по умолчанию представлена погода в Вестдорпе за последнюю неделю. Архивные данные за месяц целиком и за предыдущие месяцы, начиная с января 2011 года, Вы можете получить, выбрав интересующий диапазон дат из раскрывающегося списка и нажав кнопку "Найти!".
*Определитесь, кто Вы:
Внимание! Время в таблицах - всемирное. Для получения местного времени необходимо прибавить поправку, которая равна 1 ч.
Смотрите также архив погоды в соседних городах и на ближайших метеорологических станциях:
Партнеры нашего сайта:      
Пояснения к столбцам:
  • Ветер - указаны скорость ветра в м/с - средняя за 10 мин, порывы в срок и между сроками (в фигурных скобках) и направление, откуда дует ветер: С - северный,
  • СВ - северо-восточный, В - восточный, ЮВ - юго-восточный, Ю - южный, ЮЗ - юго-западный, З - западный, СЗ - северо-западный.
  • Видимость - горизонтальная дальность видимости в метрах или километрах. При видимости от 1 до 10 км при отсутствии осадков обычно наблюдается дымка, при ухудшении видимости до 1 км и менее - туман. В сухую погоду видимость может ухудшаться дымом, пылью или мглою.
  • Явления - указаны атмосферные явления, наблюдавшиеся в срок или в последний час перед сроком; фигурными скобками обозначены явления, наблюдавшиеся между сроками (за 1-3 часа до срока); квадратными скобками обозначены град или гололедные отложения с указанием их диаметра в мм.
  • Облачность - указаны через наклонную черту общая и нижняя облачность в баллах и высота нижней границы облаков в метрах; квадратными скобками обозначены формы облаков: Ci - перистые, Cs - перисто-слоистые, Cc - перисто-кучевые, Ac - высококучевые, As - высокослоистые, Sc - слоисто-кучевые, Ns - слоисто-дождевые, Cu - кучевые, Cb - кучево-дождевые. Подробнее классификацию облаков см. в Атласе облаков (PDF).
  • T - Температура воздуха - температура, измеренная на высоте 2 м над землей.
  • Td - Температура точки росы - температура, при понижении до которой содержащийся в воздухе водяной пар достигнет насыщения.
  • f - Относительная влажность воздуха - влажноcть воздуха, измеренная на высоте 2 м над землей.
  • Te - Эффективная температура - температура, которую ощущает одетый по сезону человек в тени. Характеристика душности погоды. При расчете учитывается влияние влажности воздуха и скорости ветра на теплоощущения человека.
  • Tes - Эффективная температура на солнце - температура, которую ощущает человек, с поправкой на солнечный нагрев. Характеристика знойности погоды. Зависит от высоты солнца над горизонтом, облачности и скорости ветра. Ночью, в пасмурную погоду, а также при ветре 12 м/с и более поправка равна нулю.
  • P - Атмосферное давление - приведенное к уровню моря атмосферное давление.
  • Po - Атмосферное давление - измеренное на уровне метеостанции атмосферное давление.
  • Tmin - Минимальная температура - минимум температуры воздуха на высоте 2 м над землей.
  • Tmax - Максимальная температура - максимум температуры воздуха на высоте 2 м над землей.
  • R - Количество осадков - Количество выпавших осадков за период времени, мм. При наведении курсора мыши на число - период времени, за который выпало указанное количество осадков.
  • R24 - Количество осадков - Количество выпавших осадков за 24 часа, мм.
  • S - Снежный покров - Высота снежного покрова, см. При наведении курсора мыши на число - состояние снежного покрова и степень покрытия местности в баллах.